Glidden, IA

2:29 PM CST on February 26, 2017 (GMT -0600)
Neu

Weather History for KCIN - May, 2013

Change the Weather History Date:

Tuesday, May 21, 2013

  Actual Average Record
Temperature  
Mean Temperature 62 °F -  
Max Temperature 66 °F 77 °F 93 °F (1972)
Min Temperature 57 °F 49 °F 35 °F (1963)
Degree Days  
Heating Degree Days 4    
Growing Degree Days 12 (Base 50)    
Moisture  
Dew Point 51 °F    
Average Humidity 74    
Maximum Humidity 100    
Minimum Humidity 49    
Precipitation  
Precipitation 0.00 in - - ()
Sea Level Pressure  
Sea Level Pressure 29.63 in    
Wind  
Wind Speed 14 mph (WSW)    
Max Wind Speed 25 mph    
Max Gust Speed 34 mph    
Visibility 10 miles    
Events      
Averages and records for this station are not official NWS values.
T = Trace of Precipitation, MM = Missing Value Source: NWS Daily Summary

Daily Weather History Graph

Daily Weather History Graph

Search for Another Location

Airport or City:

Trip Planner

Search our weather history database for the weather conditions in past years. The results will help you decide how hot, cold, wet, or windy it might be!

Date:

Astronomy

May. 21, 2013 Rise Set
Actual Time 5:52 AM CDT 8:39 PM CDT
Civil Twilight 5:20 AM CDT 9:11 PM CDT
Nautical Twilight 4:39 AM CDT 9:53 PM CDT
Astronomical Twilight 3:52 AM CDT 10:40 PM CDT
Moon 4:50 PM CDT (5/21) 3:25 AM CDT (5/21)
Length of Visible Light 15h 51m
Length of Day
14h 46m
Waxing Gibbous, 84% of the Moon is Illuminated
May 21
Waxing Gibbous
May 24
Full
May 31
Last Quarter
Jun 8
New
Jun 16
First Quarter

Hourly Weather History & Observations

Time (CDT) Temp. Dew Point Humidity Pressure Visibility Wind Dir Wind Speed Gust Speed Precip Events Conditions
12:35 AM 62.6 °F 55.4 °F 77% 29.56 in 10.0 mi SW 10.4 mph - N/A   Clear
12:55 AM 60.8 °F 55.4 °F 82% 29.56 in 10.0 mi SSW 9.2 mph - N/A   Clear
1:15 AM 59.0 °F 55.4 °F 88% 29.56 in 10.0 mi SW 10.4 mph - N/A   Clear
1:35 AM 59.0 °F 53.6 °F 82% 29.57 in 10.0 mi SW 10.4 mph - N/A   Clear
1:55 AM 59.0 °F 53.6 °F 82% 29.56 in 10.0 mi SW 11.5 mph - N/A   Clear
2:15 AM 57.2 °F 53.6 °F 88% 29.56 in 10.0 mi SW 10.4 mph - N/A   Clear
2:35 AM 57.2 °F 53.6 °F 88% 29.56 in 10.0 mi SW 10.4 mph - N/A   Clear
2:55 AM 57.2 °F 53.6 °F 88% 29.56 in 10.0 mi SW 10.4 mph - N/A   Clear
3:15 AM 57.2 °F 53.6 °F 88% 29.57 in 10.0 mi WSW 10.4 mph - N/A   Mostly Cloudy
3:35 AM 57.2 °F 57.2 °F 100% 29.57 in 5.0 mi West 11.5 mph 18.4 mph N/A   Overcast
3:55 AM 59.0 °F 57.2 °F 94% 29.57 in 10.0 mi West 11.5 mph - N/A   Overcast
4:15 AM 59.0 °F 55.4 °F 88% 29.58 in 10.0 mi West 11.5 mph - N/A   Overcast
4:35 AM 57.2 °F 55.4 °F 94% 29.58 in 10.0 mi West 11.5 mph - N/A   Mostly Cloudy
4:55 AM 57.2 °F 55.4 °F 94% 29.58 in 10.0 mi West 13.8 mph - N/A   Mostly Cloudy
5:15 AM 57.2 °F 55.4 °F 94% 29.59 in 10.0 mi West 12.7 mph - N/A   Overcast
5:35 AM 57.2 °F 53.6 °F 88% 29.60 in 10.0 mi West 11.5 mph - N/A   Overcast
5:55 AM 57.2 °F 53.6 °F 88% 29.61 in 10.0 mi West 10.4 mph - N/A   Overcast
6:15 AM 57.2 °F 53.6 °F 88% 29.61 in 10.0 mi WSW 11.5 mph 18.4 mph N/A   Overcast
6:35 AM 57.2 °F 51.8 °F 82% 29.62 in 10.0 mi West 10.4 mph - N/A   Overcast
6:55 AM 57.2 °F 51.8 °F 82% 29.62 in 10.0 mi SW 8.1 mph - N/A   Overcast
7:15 AM 57.2 °F 51.8 °F 82% 29.62 in 10.0 mi WSW 11.5 mph - N/A   Overcast
7:35 AM 57.2 °F 51.8 °F 82% 29.63 in 10.0 mi WSW 13.8 mph - N/A   Overcast
7:55 AM 57.2 °F 51.8 °F 82% 29.63 in 10.0 mi SW 10.4 mph - N/A   Overcast
8:15 AM 57.2 °F 51.8 °F 82% 29.63 in 10.0 mi SW 13.8 mph - N/A   Overcast
8:35 AM 57.2 °F 51.8 °F 82% 29.64 in 10.0 mi WSW 13.8 mph 20.7 mph N/A   Overcast
8:55 AM 57.2 °F 51.8 °F 82% 29.64 in 10.0 mi WSW 16.1 mph 23.0 mph N/A   Overcast
9:15 AM 57.2 °F 50.0 °F 77% 29.64 in 10.0 mi WSW 20.7 mph - N/A   Overcast
9:35 AM 59.0 °F 50.0 °F 72% 29.64 in 10.0 mi WSW 18.4 mph - N/A   Overcast
9:55 AM 59.0 °F 50.0 °F 72% 29.64 in 10.0 mi SW 16.1 mph 23.0 mph N/A   Overcast
10:15 AM 59.0 °F 48.2 °F 67% 29.64 in 10.0 mi WSW 19.6 mph - N/A   Overcast
10:35 AM 59.0 °F 48.2 °F 67% 29.65 in 10.0 mi WSW 16.1 mph - N/A   Overcast
10:55 AM 60.8 °F 48.2 °F 63% 29.65 in 10.0 mi WSW 13.8 mph 23.0 mph N/A   Overcast
11:15 AM 60.8 °F 50.0 °F 68% 29.64 in 10.0 mi WSW 16.1 mph 23.0 mph N/A   Mostly Cloudy
11:35 AM 60.8 °F 50.0 °F 68% 29.64 in 10.0 mi WSW 16.1 mph 23.0 mph N/A   Overcast
11:55 AM 60.8 °F 48.2 °F 63% 29.65 in 10.0 mi SW 17.3 mph 25.3 mph N/A   Overcast
12:15 PM 62.6 °F 48.2 °F 59% 29.64 in 10.0 mi SW 19.6 mph - N/A   Overcast
12:35 PM 62.6 °F 48.2 °F 59% 29.65 in 10.0 mi SW 19.6 mph 25.3 mph N/A   Overcast
12:55 PM 64.4 °F 46.4 °F 52% 29.64 in 10.0 mi SW 21.9 mph - N/A   Overcast
1:15 PM 62.6 °F 48.2 °F 59% 29.65 in 10.0 mi WSW 19.6 mph 26.5 mph N/A   Overcast
1:35 PM 62.6 °F 48.2 °F 59% 29.66 in 10.0 mi WSW 21.9 mph 29.9 mph N/A   Overcast
1:55 PM 64.4 °F 48.2 °F 56% 29.66 in 10.0 mi WSW 21.9 mph - N/A   Overcast
2:15 PM 64.4 °F 46.4 °F 52% 29.65 in 10.0 mi SW 25.3 mph 31.1 mph N/A   Overcast
2:35 PM 66.2 °F 48.2 °F 52% 29.66 in 10.0 mi WSW 18.4 mph 31.1 mph N/A   Mostly Cloudy
2:55 PM 66.2 °F 48.2 °F 52% 29.66 in 10.0 mi SW 23.0 mph 32.2 mph N/A   Mostly Cloudy
3:15 PM 66.2 °F 46.4 °F 49% 29.65 in 10.0 mi SW 24.2 mph 34.5 mph N/A   Mostly Cloudy
3:35 PM 66.2 °F 48.2 °F 52% 29.65 in 10.0 mi WSW 24.2 mph 32.2 mph N/A   Mostly Cloudy
3:55 PM 64.4 °F 46.4 °F 52% 29.65 in 10.0 mi WSW 24.2 mph 31.1 mph N/A   Scattered Clouds
4:15 PM 64.4 °F 46.4 °F 52% 29.65 in 10.0 mi WSW 23.0 mph 33.4 mph N/A   Mostly Cloudy
4:35 PM 64.4 °F 46.4 °F 52% 29.64 in 10.0 mi SW 21.9 mph 32.2 mph N/A   Mostly Cloudy
4:55 PM 62.6 °F 46.4 °F 55% 29.65 in 10.0 mi SW 23.0 mph 28.8 mph N/A   Overcast
5:15 PM 62.6 °F 46.4 °F 55% 29.64 in 10.0 mi WSW 18.4 mph 28.8 mph N/A   Overcast
5:35 PM 62.6 °F 46.4 °F 55% 29.64 in 10.0 mi SW 18.4 mph 28.8 mph N/A   Overcast
5:55 PM 62.6 °F 48.2 °F 59% 29.65 in 10.0 mi SW 23.0 mph 28.8 mph N/A   Overcast
6:15 PM 62.6 °F 48.2 °F 59% 29.65 in 10.0 mi SW 21.9 mph - N/A   Overcast
6:35 PM 62.6 °F 48.2 °F 59% 29.64 in 10.0 mi WSW 17.3 mph 26.5 mph N/A   Overcast
6:55 PM 62.6 °F 48.2 °F 59% 29.64 in 10.0 mi WSW 20.7 mph - N/A   Overcast
7:15 PM 60.8 °F 50.0 °F 68% 29.65 in 10.0 mi WSW 17.3 mph 25.3 mph N/A   Overcast
7:35 PM 60.8 °F 50.0 °F 68% 29.65 in 10.0 mi SW 20.7 mph - N/A   Overcast
7:55 PM 60.8 °F 50.0 °F 68% 29.65 in 10.0 mi WSW 16.1 mph - N/A   Overcast
8:15 PM 60.8 °F 50.0 °F 68% 29.64 in 10.0 mi SW 17.3 mph - N/A   Overcast
8:35 PM 59.0 °F 51.8 °F 77% 29.64 in 10.0 mi WSW 16.1 mph 23.0 mph N/A   Overcast
8:55 PM 59.0 °F 53.6 °F 82% 29.64 in 10.0 mi WSW 16.1 mph - N/A   Overcast
9:15 PM 59.0 °F 55.4 °F 88% 29.65 in 10.0 mi SW 15.0 mph - N/A   Overcast
9:35 PM 59.0 °F 55.4 °F 88% 29.66 in 10.0 mi SW 15.0 mph - N/A   Mostly Cloudy
9:55 PM 59.0 °F 55.4 °F 88% 29.66 in 10.0 mi SW 13.8 mph - N/A   Overcast
10:15 PM 59.0 °F 55.4 °F 88% 29.66 in 10.0 mi WSW 11.5 mph - N/A   Mostly Cloudy
10:35 PM 59.0 °F 55.4 °F 88% 29.66 in 10.0 mi WSW 13.8 mph - N/A   Mostly Cloudy
10:55 PM 59.0 °F 57.2 °F 94% 29.66 in 10.0 mi West 12.7 mph 18.4 mph N/A   Overcast
11:35 PM 57.2 °F 55.4 °F 94% 29.67 in 10.0 mi West 12.7 mph - N/A   Overcast
11:55 PM 57.2 °F 55.4 °F 94% 29.66 in 10.0 mi West 15.0 mph - N/A   Overcast